Montreal, Quebec

8:47 AM EDT on May 24, 2017 (GMT -0400)
Montreal-Pierre Elliott Trudeau Int'l Airport

Weather History for CYUL - December, 2013

Change the Weather History Date:

Saturday, December 28, 2013

  Actual Average Record
Temperature  
Mean Temperature 25 °F -  
Max Temperature 35 °F 22 °F 53 °F (2008)
Min Temperature 15 °F 5 °F -2 °F (1999)
Degree Days  
Heating Degree Days 40    
Moisture  
Dew Point 28 °F    
Average Humidity 88    
Maximum Humidity 100    
Minimum Humidity 75    
Precipitation  
Precipitation 0.01 in 0.08 in - ()
Sea Level Pressure  
Sea Level Pressure 29.96 in    
Wind  
Wind Speed 10 mph ()    
Max Wind Speed 16 mph    
Max Gust Speed 23 mph    
Visibility 8.3 miles    
Events Rain , Snow    
Averages and records for this station are not official NWS values.
T = Trace of Precipitation, MM = Missing Value Source: Averaged Metar Reports

Daily Weather History Graph

Daily Weather History Graph

Search for Another Location

Airport or City:

Trip Planner

Search our weather history database for the weather conditions in past years. The results will help you decide how hot, cold, wet, or windy it might be!

Date:

Astronomy

Dec. 28, 2013 Rise Set
Actual Time 7:34 AM EST 4:19 PM EST
Civil Twilight 7:00 AM EST 4:53 PM EST
Nautical Twilight 6:22 AM EST 5:30 PM EST
Astronomical Twilight 5:46 AM EST 6:06 PM EST
Moon 3:01 AM EST (12/28) 1:14 PM EST (12/28)
Length of Visible Light 9h 52m
Length of Day
8h 44m
Waning Crescent, 19% of the Moon is Illuminated
Dec 28
Waning Crescent
Jan 1
New
Jan 7
First Quarter
Jan 15
Full
Jan 24
Last Quarter

Hourly Weather History & Observations

Time (EST) Temp. Windchill Dew Point Humidity Pressure Visibility Wind Dir Wind Speed Gust Speed Precip Events Conditions
12:00 AM 21.2 °F 10.1 °F 17.6 °F 86% 30.09 in 15.0 mi South 10.4 mph - N/A   Partly Cloudy
1:00 AM 23 °F - 18 °F 75% 30.05 in 15 mi South 10.4 mph - -   Partly Cloudy
1:00 AM 23.0 °F 12.4 °F 17.6 °F 80% 30.05 in 15.0 mi South 10.4 mph - N/A   Mostly Cloudy
2:00 AM 23.0 °F 13.1 °F 17.6 °F 80% 30.01 in 15.0 mi SSE 9.2 mph - N/A   Overcast
2:38 AM 24.8 °F 12.9 °F 19.4 °F 80% 29.98 in 15.0 mi SSE 13.8 mph - N/A Snow Light Snow
3:00 AM 24.8 °F 13.4 °F 19.4 °F 80% 29.96 in 15.0 mi SSE 12.7 mph - N/A Snow Light Snow
4:00 AM 28.4 °F 18.5 °F 23.0 °F 80% 29.93 in 12.0 mi South 11.5 mph - N/A Snow Light Snow
4:09 AM 28.4 °F 19.1 °F 23.0 °F 80% 29.93 in 3.0 mi South 10.4 mph - N/A Snow Light Snow
5:00 AM 26.6 °F 22.6 °F 23.0 °F 86% 29.92 in 10.0 mi SSW 3.5 mph - N/A Snow Light Snow
6:00 AM 26.6 °F 22.6 °F 23.0 °F 86% 29.92 in 12.0 mi SSW 3.5 mph - N/A Snow Light Snow
6:35 AM 28.4 °F 19.7 °F 26.6 °F 93% 29.91 in 2.5 mi SSW 9.2 mph - N/A Snow Light Snow
6:55 AM 28.4 °F 20.4 °F 26.6 °F 93% 29.91 in 3.0 mi SSW 8.1 mph - N/A Snow Light Snow
7:00 AM 28 °F - 26 °F 88% 29.91 in 4 mi SSW 6.9 mph - - Snow Light Snow
7:00 AM 28.4 °F 21.2 °F 26.6 °F 93% 29.91 in 4.0 mi SSW 6.9 mph - N/A Snow Light Snow
8:00 AM 32.0 °F 23.0 °F 30.2 °F 93% 29.92 in 12.0 mi SW 11.5 mph - N/A Snow Light Snow
8:22 AM 33.8 °F 24.3 °F 30.2 °F 87% 29.92 in 15.0 mi WSW 13.8 mph 23.0 mph N/A   Overcast
9:00 AM 33.8 °F 23.9 °F 30.2 °F 87% 29.94 in 12.0 mi WSW 15.0 mph 20.7 mph N/A Rain Light Rain
9:27 AM 35.6 °F 25.9 °F 30.2 °F 81% 29.94 in 12.0 mi WSW 16.1 mph - N/A   Overcast
10:00 AM 35.6 °F 26.6 °F 32.0 °F 87% 29.95 in 12.0 mi WSW 13.8 mph - N/A   Overcast
11:00 AM 35.6 °F 27.1 °F 32.0 °F 87% 29.96 in 10.0 mi WSW 12.7 mph - N/A   Overcast
11:09 AM 35.6 °F 27.5 °F 32.0 °F 87% 29.95 in 8.0 mi WSW 11.5 mph - N/A   Light Drizzle
12:00 PM 35.6 °F 27.1 °F 32.0 °F 87% 29.95 in 5.0 mi WSW 12.7 mph - N/A   Light Drizzle
1:00 PM 35 °F - 33 °F 89% 29.94 in 4 mi WSW 12.7 mph - - Rain Light Drizzle
1:00 PM 33.8 °F 25.3 °F 33.8 °F 100% 29.94 in 4.0 mi WSW 11.5 mph - N/A   Light Drizzle
2:00 PM 35.6 °F 27.5 °F 32.0 °F 87% 29.94 in 5.0 mi West 11.5 mph - N/A   Light Drizzle
2:19 PM 33.8 °F 26.4 °F 32.0 °F 93% 29.93 in 5.0 mi SW 9.2 mph - N/A   Light Drizzle
2:54 PM 35.6 °F 28.0 °F 32.0 °F 87% 29.94 in 6.0 mi SW 10.4 mph - N/A   Light Drizzle
3:00 PM 35.6 °F 28.6 °F 32.0 °F 87% 29.94 in 6.0 mi SW 9.2 mph - N/A Snow Light Snow
4:00 PM 35.6 °F 28.6 °F 32.0 °F 87% 29.94 in 6.0 mi SSW 9.2 mph - N/A   Light Drizzle
4:45 PM 33.8 °F 25.8 °F 32.0 °F 93% 29.97 in 6.0 mi SW 10.4 mph - N/A   Light Drizzle
5:00 PM 35.6 °F 28.0 °F 32.0 °F 87% 29.97 in 6.0 mi SW 10.4 mph - N/A   Light Drizzle
6:00 PM 33.8 °F 25.3 °F 32.0 °F 93% 29.98 in 6.0 mi SW 11.5 mph - N/A   Light Drizzle
7:00 PM 34 °F - 33 °F 95% 29.99 in 5 mi SSW 12.7 mph - - Rain Light Drizzle
7:00 PM 33.8 °F 24.8 °F 33.8 °F 100% 29.99 in 5.0 mi SW 12.7 mph - N/A   Light Drizzle
8:00 PM 33.8 °F 24.8 °F 32.0 °F 93% 30.00 in 6.0 mi SW 12.7 mph - N/A Rain Light Rain
8:22 PM 33.8 °F 23.9 °F 32.0 °F 93% 30.01 in 8.0 mi SW 15.0 mph - N/A   Light Drizzle
9:00 PM 35.6 °F 25.9 °F 32.0 °F 87% 30.01 in 8.0 mi SW 16.1 mph - N/A   Light Drizzle
10:00 PM 35.6 °F 27.1 °F 32.0 °F 87% 29.99 in 10.0 mi WSW 12.7 mph - N/A   Overcast
11:00 PM 33.8 °F 25.8 °F 32.0 °F 93% 29.98 in 6.0 mi SW 10.4 mph - N/A   Overcast
11:48 PM 33.8 °F 26.4 °F 32.0 °F 93% 29.97 in 3.0 mi SW 9.2 mph - N/A   Light Drizzle